Location: Asheville, NC
(35.6000°N, 82.5500°W)
Time: 00:20:40
(UTC-04:00)

ZACube-1 - Pass Details

Date: 09 March 2018
Orbit: 584 x 668 km, 97.6° (Epoch: 22 June)

Event Time Altitude Azimuth Distance (km) Brightness Sun altitude
Rises 18:51:37 0° 135° (SE) 2,916 ? -4.7°
Reaches altitude 10° 18:54:13 10° 121° (ESE) 1,997 ? -5.2°
Maximum altitude 18:57:33 22° 70° (ENE) 1,358 ? -5.9°
Drops below altitude 10° 19:00:50 10° 20° (NNE) 1,967 ? -6.6°
Sets 19:03:22 0° 5° (N) 2,860 ? -7.1°
